Epoch 2022 Jan. 21.0 TT = JDT 2459600.5 T 2021 Feb. 19.46494 TT Rudenko q 1.7407670 (2000.0) P Q n 0.00724343 Peri. 147.33037 +0.00093824 -0.05571328 a 26.4549279 Node 88.32192 -0.98716645 -0.15949558 e 0.9341988 Incl. 92.71833 +0.15969194 -0.98562528 P 136 From 107 observations 2021 Feb. 3-June 7, mean residual 0".5.
m1 = 14.5 + 5 logΔ + 10.0 log r